星链-31603 (STARLINK-31603 )

导读

STARLINK-31603是美国太空探索技术公司(SpaceX)于2024年3月11日发射的星链(Starlink)卫星,属于马斯克星链互联网星座计划,部署在近地轨道,为全球提供高速宽带互联网接入,尤其服务偏远地区。卫星采用平板设计,配备氪工质霍尔推进器和太阳能供电,具备自主避撞能力,寿命末期会坠入大气层烧毁,减少太空垃圾威胁。

基本信息
目录编号:
59201
目录名称:
STARLINK-31603
国际标识:
2024-046A
轨道中心:
EARTH
卫星名称:
星链-31603
卫星全名:
星链-31603 (STARLINK-31603 )
卫星状态:
在轨 (已飞行915 天)
发射日期:
2024-03-11 UTC
国别 :
美国 (US)
星等 :
--
该卫星已列入 空间交会检测服务 Space Conjunction Data Service (SCDS) ,当前飞行风险评估等级: 无高风险
轨道信息
数据来源 国际轨道数据
星历时间: 2026-09-12T01:39:20+0800
7小时前
查看轨道信息
半长轴: 6840.935km
偏心率: 0.0001194
轨道倾角: 53.162°
近地点辐角 81.373°
升交点赤经 10.499°
平近点角 278.741°
近地点: 461.981km
远地点: 463.615km
周期: 93.850分钟
每日圈数: 15.343683
详细信息
固有亮度:
5
最大亮度:
0.3
卫星平台:
Starlink v2.0 mini
覆盖范围:
全球
运营商:
太空探索技术公司
运营商所在国:
美国
制造商(研发单位):
太空探索技术公司
制造商所在国:
美国
使用方式:
暂无
卫星简介
星链(Starlink)计划是由太空探索技术公司(SpaceX)提出的一个巨型低轨卫星互联网星座项目,计划在2019年至2024年间在太空搭建由约1.2万颗卫星组成的“星链”网络,其中1584颗将部署在地球上空550千米处的近地轨道,并从2020年开始工作。该卫星仍在工作。
2D轨道图
3D轨道图
轨道高度分析图
轨道倾角分析图
轨道综合分析图
查看轨道综合分析图
交会数据列表
事件ID 空间交会对象 最接近时刻(TCA) 交会距离 交会风险概率(CRP) 交会风险指数(CRI) 操作
CDM_260912-225705-920105-920721
2026-09-12T
22:57:34+0000
0.415 km
远距离
5.694911E-5 中风险 0.7
CDM_260912-221005-920105-920721
2026-09-12T
22:10:40+0000
0.653 km
远距离
1.43758E-5 中风险 0.58
CDM_260913-084905-920106-857021
2026-09-13T
08:49:16+0000
1.223 km
极远距离
1.157296E-5 中风险 0.56
CDM_260912-212305-920105-920721
2026-09-12T
21:23:46+0000
0.857 km
远距离
5.783439E-6 低风险 0.5
CDM_260913-102305-920106-857021
2026-09-13T
10:23:03+0000
1.535 km
极远距离
5.388361E-6 低风险 0.5
CDM_260912-234405-920105-920721
2026-09-12T
23:44:28+0000
0.878 km
远距离
5.327248E-6 低风险 0.5
CDM_260912-184805-475005-920121
2026-09-12T
18:48:34+0000
1.419 km
极远距离
2.879295E-6 低风险 0.44
CDM_260914-025905-899805-920121
2026-09-14T
02:59:23+0000
1.948 km
极远距离
2.025318E-6 低风险 0.41
CDM_260914-012505-899805-920121
2026-09-14T
01:25:35+0000
2.340 km
极远距离
1.345217E-6 低风险 0.38
CDM_260913-003105-920105-920721
2026-09-13T
00:31:21+0000
1.417 km
极远距离
1.143109E-6 低风险 0.36
与全量物体交会距离演化趋势
与全量物体交会风险概率演化趋势